This is the latest recevied weather packets stored in our database for station/object KB4MOX. If no packets are shown the sender has not sent any weather packets the latest 10 day(s).
| Time | Temp. | Humidity | Pressure | Rain* | Wind** | Luminosity | Snow |
|---|---|---|---|---|---|---|---|
| 1788013109 | 25.56° C | 84% | 1021.5 hPa | 0 mm | - | 134 W/m² | - |
| 1788012808 | 25° C | 84% | 1021.5 hPa | 0 mm | - | 119 W/m² | - |
| 1788012503 | 25.56° C | 84% | 1021.4 hPa | 0 mm | - | 103 W/m² | - |
| 1788012203 | 25.56° C | 83% | 1021.6 hPa | 0 mm | - | 181 W/m² | - |
| 1788011902 | 25° C | 86% | 1021.5 hPa | 0 mm | - | 179 W/m² | - |
| 1788011600 | 25° C | 86% | 1021.4 hPa | 0 mm | - | 112 W/m² | - |
| 1788011297 | 24.44° C | 86% | 1021.5 hPa | 0 mm | - | 98 W/m² | - |
| 1788010995 | 24.44° C | 87% | 1021.5 hPa | 0 mm | - | 92 W/m² | - |
| 1788010691 | 23.89° C | 88% | 1021.4 hPa | 0 mm | - | 86 W/m² | - |
| 1788010390 | 23.89° C | 89% | 1021.3 hPa | 0 mm | - | 143 W/m² | - |
| 1788010090 | 23.33° C | 89% | 1021.3 hPa | 0 mm | - | 78 W/m² | - |
| 1788009785 | 23.33° C | 90% | 1021.2 hPa | 0 mm | - | 69 W/m² | - |
| 1788009483 | 23.33° C | 92% | 1021.1 hPa | 0 mm | - | 64 W/m² | - |
| 1788009178 | 22.78° C | 93% | 1021.2 hPa | 0 mm | - | 65 W/m² | - |
| 1788008873 | 22.78° C | 93% | 1021.2 hPa | 0 mm | - | 66 W/m² | - |
| 1788008568 | 22.78° C | 94% | 1021.2 hPa | 0 mm | - | 67 W/m² | - |
| 1788008266 | 22.78° C | 95% | 1021.1 hPa | 0 mm | - | 72 W/m² | - |
| 1788007964 | 22.22° C | 96% | 1021.2 hPa | 0 mm | - | 74 W/m² | - |
| 1788007663 | 22.22° C | 97% | 1021.2 hPa | 0 mm | - | 74 W/m² | - |
| 1788007358 | 22.22° C | 97% | 1021.1 hPa | 0 mm | - | 71 W/m² | - |
| 1788007053 | 22.22° C | 97% | 1021.1 hPa | 0 mm | - | 77 W/m² | - |
| 1788006751 | 22.22° C | 97% | 1021.1 hPa | 0 mm | - | 74 W/m² | - |
| 1788006447 | 21.67° C | 98% | 1021.2 hPa | 0 mm | - | 77 W/m² | - |
| 1788006146 | 21.67° C | 98% | 1021.1 hPa | 0 mm | - | 88 W/m² | - |
| 1788005846 | 21.67° C | 97% | 1021.1 hPa | 0 mm | - | 79 W/m² | - |
* Rain latest hour (hover to see other rain measurements)
** Current wind speed in m/s (hover to see current wind gust speed)